Location: Bauerbach
(50.4985°N, 10.3912°E)
Time: 22:51:59
(UTC+00:00)

NOSS 8 (F) - Visible Passes

Search period start: 18 April 2026 00:00
Search period end: 28 April 2026 00:00
Orbit: 364 x 1524 km, 63.3° (Epoch: 18 April)

Date Brightness Start Highest point End Pass type
(mag) Time Alt. Az. Time Alt. Az. Time Alt. Az.
18 Apr 7.3 01:42:47 10° NW 01:43:46 11° NNW 01:44:43 10° N visible
19 Apr 6.7 00:12:42 23° NNW 00:12:42 23° NNW 00:14:41 10° NNE visible
19 Apr 7.3 22:43:40 13° NE 22:43:40 13° NE 22:44:00 10° NE visible
20 Apr 6.9 00:27:35 17° NW 00:27:53 17° NNW 00:30:07 10° NNE visible
20 Apr 6.8 22:58:27 21° NNE 22:58:27 21° NNE 22:59:37 10° NE visible
21 Apr 7.3 00:42:22 10° NW 00:43:56 13° NNW 00:45:24 10° N visible
21 Apr 6.6 23:13:09 26° N 23:13:09 26° N 23:15:08 10° NNE visible
22 Apr 7.6 02:48:23 10° NNE 02:48:34 10° NNE 02:48:46 10° NNE visible
22 Apr 7.0 21:43:46 14° NE 21:43:46 14° NE 21:44:16 10° NE visible
22 Apr 6.8 23:27:38 20° NW 23:28:02 21° NNW 23:30:33 10° NNE visible
23 Apr 7.2 03:03:07 10° N 03:04:40 13° NNE 03:06:12 10° NE visible
23 Apr 5.9 21:57:59 34° NNE 21:57:59 34° NNE 21:59:55 10° NE visible
23 Apr 7.3 23:41:56 10° WNW 23:43:59 15° NNW 23:45:51 10° N visible
24 Apr 7.0 03:18:25 10° NNW 03:20:37 19° NNE 03:22:54 10° E visible
24 Apr 6.6 20:27:43 15° ENE 20:27:43 15° ENE 20:28:30 10° ENE visible
24 Apr 5.8 22:11:30 35° WNW 22:12:18 40° NW 22:15:25 10° NNE visible
24 Apr 7.6 23:59:04 10° NW 00:00:01 11° NNW 00:00:55 10° N visible
25 Apr 4.9 20:36:40 10° SSW 20:41:01 48° SE 20:44:23 10° NE visible
25 Apr 6.7 22:24:49 10° W 22:28:05 25° NW 22:30:50 10° NNE visible
26 Apr 7.5 02:03:32 10° N 02:04:37 11° NNE 02:05:41 10° NE visible
26 Apr 6.7 19:08:10 10° SE 19:09:54 12° ESE 19:11:29 10° E visible
26 Apr 4.5 20:52:16 10° SW 20:56:40 87° SE 21:00:03 10° NE visible
26 Apr 7.3 22:41:27 10° WNW 22:43:56 17° NNW 22:46:09 10° NNE visible
27 Apr 7.3 02:18:40 10° NNW 02:20:34 16° NNE 02:22:31 10° ENE visible
27 Apr 6.1 19:22:00 10° S 19:25:26 21° SE 19:28:18 10° ENE visible
27 Apr 5.4 21:08:11 10° WSW 21:12:18 53° NW 21:15:34 10° NE visible
27 Apr 7.7 22:58:20 10° NW 22:59:52 12° NNW 23:01:19 10° N visible
